DECAYED
Showing default

FLOCK 1C 11, 40033 (Decayed)

Orbit data source: Space-Track

FLOCK 1C 11, 40033 was a payload satellite owned by Planet Labs (US) in LEO that was launched on Thu, 19 Jun 2014 UTC via a DNEPR launch vehicle from the Orenburg, Russia (OREN). Payload-class satellites include a variety of spacecraft equipped with specific instruments for various scientific and technological missions. These include communications satellites like Starlink; space stations such as the ISS; scientific satellites like the Hubble; Earth observation satellites from companies like Planet Labs, Umbra, and HawkEye 360; GPS; miniature CubeSats for education and research; and military/defense satellites.

Not visible in the next 10 days
Identifier
40033, 2014-033Z
Orbit
Decayed
Country
Flag of USUS
Related business
Manufacturer
Planet Labs
Mission
Decayed Commercial Imaging
Bus & Motor
CUBESAT 3U, Unknown motor
Mass
4.25 kg wet, 4.25 kg dry
Launch date (UTC)
2014-06-19 (12 years ago)
Launch vehicle
DNEPR
Launch site
Orenburg, Russia (OREN)
Object type
Payload
Rocket body
Debris
Shape & HBR
Box + 2 Pan, 1.0 m
Radar Cross Section
0.108 m², Medium (>0.1 m² and < 1m²)

Expand to show TLE details & history
Last TLE update: 2 years ago

TLE from 2 years ago
0 FLOCK 1C 11
1 40033U 14033Z   25061.51451438  .09342429  29239-5  23101-2 0  9998
2 40033  98.0572  89.3549 0008607 237.4239 122.6222 16.29120625583649
Epoch: 2025-03-02T12:20Z
TLE epoch observation values (Epoch: 2025-03-02T12:20:54.042Z)
Latitude
-0.00003°
Longitude
103.58419°
Altitude
201.175 km
Speed
7.784 km/s
True Right ascension
05h 57m 25s
True Declination
0° 00' 00"
Sunlit
Object was in full shadow at epoch
Visualization orbit readout
Latitude
Unknown
Longitude
Unknown
Altitude
Unknown
Speed
Unknown
Apparent Right ascension
Unknown
Apparent Declination
Unknown
Sunlit
N/A
Visualization observer readout
Local Sidereal Time
16:37:25
Azimuth
Unknown
Elevation
Unknown
Doppler factor
Unknown
Orbital elements
Apogee altitude
197.411 km
Perigee altitude
186.102 km
Semi-major axis
6,569.894 km
Eccentricity
0.00086
Inclination
98.0572°
RAAN
89.3549°
Arg. of periapsis
237.4239°
True anomaly
122.70522°
Mean anomaly
122.6222°
Eccentric anomaly
122.66372°
Mean motion
4.07573 °/min
Orbital period
88.33 mins
BSTAR
0.0023101
Loading maneuver chart data...
Computing Atmospheric mass density...
Loading historical data...
Loading historical data...
Loading historical data...
Loading historical data...
Loading historical data...
Loading historical data...
Loading historical data...

Documentation

Showing up to 5 results
|